Simultaneous Nadir Overpasses (SNOs) Predictions

Prediction of SNOs near equator between AQUA and NPP Satellite Orbit:

Table of predicted SNOs near equator for the next 14.0 days since TLE Epoch: 5/21/2022
Index Date (AQUA) Time (AQUA) AQUA Lat,Lon Date (NPP) Time (NPP) NPP Lat,Lon Distance(km) Time Diff (sec)
1 05/24/2022 19:04:11 5.27, -82.26 05/24/2022 18:54:27 5.07, -83.08 93.20 584
2 05/27/2022 10:37:33 -29.97,-139.60 05/27/2022 10:27:33 -29.85,-140.60 98.14 600
3 06/01/2022 18:13:25 5.49, -69.57 06/01/2022 18:03:37 5.33, -70.41 94.98 588
